[[{"header":{"parameterUnit":"m.s-1","parameterCategory":1,"la1":30.2991,"la2":30.254,"lo1":-89.0895,"lo2":-89.0444,"dy":0.0017,"dx":0.0017,"nx":28,"ny":28,"refTime":"2023-09-21T03:00:00:Z","depth":0,"parameterNumber":2,"parameterNumberName":"U-component_of_WINDS"},"data":[0,0,0,0,0,0,0,0,0,0,0,0,0,0,0,0,0,0,0,0,0,0,0,0,0,0,0,0,0,0,0,0,0,0,0,0,0,0,0,0,0,0,0,0,0,0,0,0,0,0,0,0,0,0,0,0,0,0,-5.049,-5.0491,0,-5.0524,-5.0524,-5.0525,-5.0406,-5.0403,-5.0399,-5.0396,-5.0432,-5.0436,-5.044,0,0,0,0,0,0,0,0,0,0,0,0,0,-5.0325,-5.0328,-5.049,-5.0491,-5.0491,-5.0524,-5.0525,-5.0525,-5.0407,-5.0402,-5.0398,-5.0394,-5.0431,-5.0436,-5.0441,0,0,0,0,0,0,0,0,0,0,0,0,0,-5.0382,-5.033,-5.049,-5.0436,-5.0431,-5.0524,-5.0525,-5.0525,-5.0408,-5.0402,-5.0397,-5.0392,-5.0429,-5.0435,-5.0441,-5.0588,0,0,-5.0461,-5.0464,0,0,0,0,0,0,0,0,-5.0379,-5.0388,-5.0443,-5.044,-5.0435,-5.0455,-5.0479,-5.0546,-5.0409,-5.0417,-5.0396,-5.0389,-5.0444,-5.0449,-5.0467,-5.059,-5.0591,-5.0462,-5.0466,-5.0468,-5.047,0,0,0,0,0,0,0,-5.0375,-5.0386,-5.0503,-5.0444,-5.0439,-5.0411,-5.0413,-5.0492,-5.046,-5.0416,-5.0407,-5.0413,-5.0441,-5.0461,-5.0467,-5.0592,-5.0462,-5.0467,-5.0471,-5.0474,-5.0839,-5.0845,0,0,0,0,0,0,-5.0378,-5.0383,-5.0502,-5.0505,-5.0393,-5.0418,-5.042,-5.0454,-5.0459,-5.0454,-5.0417,-5.0407,-5.0453,-5.046,-5.0468,-5.0642,-5.0468,-5.0474,-5.0478,-5.0833,-5.084,-5.0847,0,0,0,0,0,0,-5.0375,-5.0389,-5.0501,-5.0442,-5.0454,-5.0426,-5.0466,-5.0458,-5.0478,-5.046,-5.0454,-5.0444,-5.0449,-5.0459,-5.056,-5.0641,-5.0477,-5.0483,-5.0826,-5.0835,-5.0844,-5.099,0,0,0,0,0,0,-5.037,-5.0389,-5.0444,-5.0444,-5.0457,-5.0592,-5.047,-5.0462,-5.0489,-5.0476,-5.0483,-5.0479,-5.0446,-5.0551,-5.0566,-5.0647,-5.0488,-5.0819,-5.083,-5.0841,-5.0978,-5.1002,-5.1024,0,0,0,0,0,-5.0365,-5.0484,-5.0447,-5.0462,-5.0525,-5.0597,-5.0605,-5.0563,-5.0496,-5.0552,-5.0541,-5.0479,-5.063,-5.0562,-5.0578,-5.0663,-5.0814,-5.0827,-5.084,-5.0967,-5.0998,-5.1023,0,0,0,0,0,0,-5.0494,-5.0483,-5.0442,-5.0564,-5.0583,-5.0577,-5.0645,-5.0596,-5.0634,-5.062,-5.0567,-5.0569,-5.068,-5.0681,-5.0606,-5.0806,-5.071,-5.0727,-5.0802,-5.083,-5.0853,-5.0851,-5.0493,0,0,0,0,0,-5.0537,-5.0596,-5.0582,-5.0691,-5.0702,-5.0673,-5.0702,-5.0669,-5.0685,-5.0693,-5.0688,-5.0708,-5.0759,-5.0794,-5.0841,-5.0977,-5.0978,-5.1043,-5.1066,-5.1085,-5.1101,-5.1175,-5.1204,-5.089,-5.089,-5.089,0,0,-5.0626,-5.0627,-5.0667,-5.0717,-5.0727,-5.079,-5.068,-5.0751,-5.0797,-5.0703,-5.0799,-5.0797,-5.0814,-5.0934,-5.0987,-5.0938,-5.1188,-5.1102,-5.1117,-5.1123,-5.1192,-5.1221,-5.1248,-5.0899,-5.0897,-5.0896,0,0,-5.082,-5.0826,-5.0919,-5.0931,-5.0948,-5.0928,-5.095,-5.0952,-5.0947,-5.1042,-5.0973,-5.1028,-5.1118,-5.1134,-5.1154,-5.1357,-5.1302,-5.1373,-5.1494,-5.1567,-5.1592,-5.1614,-5.1688,-5.1715,-5.1389,-5.1389,-5.1389,0,-5.0929,-5.102,-5.0972,-5.1049,-5.1074,-5.0991,-5.1086,-5.11,-5.1132,-5.1151,-5.1096,-5.1208,-5.1214,-5.1338,-5.1388,-5.1406,-5.1431,-5.1373,-5.1592,-5.1613,-5.1633,-5.1703,-5.1731,-5.1398,-5.1397,-5.1396,-5.1395,0,-5.1154,-5.1219,-5.1291,-5.1324,-5.1357,-5.1442,-5.1408,-5.1447,-5.1411,-5.1397,-5.1495,-5.15,-5.1547,-5.1573,-5.1538,-5.1693,-5.1662,-5.1601,-5.1504,-5.1673,-5.1738,-5.1764,-5.141,-5.1407,-5.1404,-5.1402,0,0,-5.1431,-5.1437,-5.1465,-5.148,-5.1493,-5.1542,-5.1624,-5.1669,-5.1705,-5.1729,-5.1798,-5.1876,-5.182,-5.1843,-5.1809,-5.1873,-5.2036,-5.1804,-5.1803,-5.1848,-5.2208,-5.2256,-5.2288,-5.1999,-5.2004,-5.2008,-5.2207,0,-5.1624,-5.1763,-5.1723,-5.1863,-5.1924,-5.1847,-5.1918,-5.1935,-5.1924,-5.1974,-5.1962,-5.202,-5.194,-5.1953,-5.2013,-5.2003,-5.2108,-5.1988,-5.2064,-5.2067,-5.2064,-5.2321,-5.2371,-5.2559,-5.2232,-5.2237,-5.224,0,-5.1867,-5.1902,-5.2049,-5.2053,-5.2077,-5.2142,-5.2181,-5.223,-5.2247,-5.2235,-5.2262,-5.2216,-5.2297,-5.2199,-5.2312,-5.2232,-5.226,-5.2261,-5.2267,-5.2274,-5.2165,-5.2337,-5.2618,-5.2647,-5.2279,-5.2276,-5.2273,0,-5.2057,-5.214,-5.2239,-5.2254,-5.2261,-5.2309,-5.2315,-5.2327,-5.2357,-5.2392,-5.2412,-5.2456,-5.248,-5.2516,-5.2484,-5.2415,-5.2603,-5.2501,-5.2596,-5.2598,-5.264,-5.2638,-5.2932,-5.2656,-5.2656,-5.2655,-5.2655,0,-5.2277,-5.237,-5.2325,-5.2386,-5.2489,-5.2442,-5.2545,-5.2542,-5.2554,-5.2614,-5.255,-5.2608,-5.256,-5.2614,-5.2589,-5.2688,-5.2699,-5.2693,-5.2685,-5.27,-5.2701,-5.2719,-5.2706,-5.2663,-5.2661,-5.266,-5.2658,0,-5.2507,-5.248,-5.2583,-5.2582,-5.2584,-5.266,-5.266,-5.2717,-5.2701,-5.2778,-5.2794,-5.277,-5.2831,-5.2802,-5.2865,-5.2848,-5.2976,-5.295,-5.297,-5.2964,-5.3061,-5.3054,-5.3378,-5.3419,-5.3116,-5.3119,-5.3121,0,-5.265,-5.272,-5.2727,-5.2763,-5.2773,-5.2831,-5.2862,-5.2819,-5.2854,-5.2881,-5.2935,-5.299,-5.3032,-5.3132,-5.3122,-5.317,-5.3146,-5.3257,-5.3153,-5.3166,-5.315,-5.3147,-5.3155,-5.3278,-5.3281,-5.3284,-5.3287,0,-5.2908,-5.2892,-5.2939,-5.2982,-5.3021,-5.3054,-5.308,-5.3113,-5.3071,-5.3114,-5.3175,-5.3208,-5.3273,-5.3329,-5.3372,-5.3378,-5.3327,-5.3319,-5.3344,-5.336,-5.337,-5.3368,-5.3029,-5.3312,-5.331,-5.3308,-5.3306,-5.3305,-5.31,-5.316,-5.3174,-5.323,-5.3245,-5.3272,-5.3326,-5.3318,-5.3368,-5.3418,-5.3389,-5.3462,-5.3479,-5.3531,-5.3544,-5.3601,-5.3557,-5.3593,-5.3602,-5.3612,-5.3626,-5.336,-5.3608,-5.3607,-5.3607,-5.3606,-5.3605,0,-5.3356,-5.3362,-5.3413,-5.3453,-5.3497,-5.3444,-5.3471,-5.3512,-5.3576,-5.3597,-5.3639,-5.3711,-5.3765,-5.3759,-5.381,-5.3856,-5.3834,-5.3871,-5.3868,-5.3871,-5.3661,-5.3636,-5.3888,-5.3888,-5.3888,-5.3888,-5.3888,-5.3888,-5.3495,-5.3593,-5.3579,-5.3685,-5.369,-5.376,-5.3781,-5.3806,-5.3822,-5.3905,-5.395,-5.3945,-5.3956,-5.4006,-5.4055,-5.4051,-5.4074,-5.412,-5.4109,-5.3913,-5.3885,-5.3859,-5.3835,-5.4125,-5.4125,-5.4314,-5.4316,-5.4317]},{"header":{"parameterUnit":"m.s-1","parameterCategory":1,"la1":30.2991,"la2":30.254,"lo1":-89.0895,"lo2":-89.0444,"dy":0.0017,"dx":0.0017,"nx":28,"ny":28,"refTime":"2023-09-21T03:00:00:Z","depth":0,"parameterNumber":3,"parameterNumberName":"V-component_of_WINDS"},"data":[0,0,0,0,0,0,0,0,0,0,0,0,0,0,0,0,0,0,0,0,0,0,0,0,0,0,0,0,0,0,0,0,0,0,0,0,0,0,0,0,0,0,0,0,0,0,0,0,0,0,0,0,0,0,0,0,0,0,-1.6453,-1.6453,0,-1.6417,-1.6417,-1.6417,-1.6359,-1.6358,-1.6357,-1.6356,-1.632,-1.632,-1.632,0,0,0,0,0,0,0,0,0,0,0,0,0,-1.6472,-1.6472,-1.6453,-1.6453,-1.6453,-1.6418,-1.6417,-1.6417,-1.6359,-1.6358,-1.6356,-1.6355,-1.632,-1.632,-1.632,0,0,0,0,0,0,0,0,0,0,0,0,0,-1.6453,-1.6472,-1.6454,-1.642,-1.6416,-1.6418,-1.6417,-1.6416,-1.6359,-1.6358,-1.6356,-1.6355,-1.632,-1.632,-1.632,-1.6352,0,0,-1.632,-1.632,0,0,0,0,0,0,0,0,-1.6454,-1.6452,-1.6425,-1.6422,-1.6418,-1.6391,-1.641,-1.6395,-1.636,-1.6381,-1.6356,-1.6354,-1.6345,-1.6343,-1.634,-1.6351,-1.6349,-1.632,-1.632,-1.632,-1.632,0,0,0,0,0,0,0,-1.6455,-1.6453,-1.6439,-1.6425,-1.6421,-1.6406,-1.6402,-1.6407,-1.6372,-1.6379,-1.6375,-1.6371,-1.6343,-1.634,-1.6338,-1.6349,-1.632,-1.632,-1.632,-1.632,-1.6382,-1.6384,0,0,0,0,0,0,-1.6462,-1.6455,-1.644,-1.6438,-1.6432,-1.6407,-1.6402,-1.6401,-1.6372,-1.6366,-1.6373,-1.6369,-1.6341,-1.6338,-1.6337,-1.6372,-1.632,-1.632,-1.6321,-1.6381,-1.6383,-1.6384,0,0,0,0,0,0,-1.6462,-1.6461,-1.6442,-1.6445,-1.6442,-1.6408,-1.6408,-1.6401,-1.6398,-1.6367,-1.6361,-1.6376,-1.6339,-1.6337,-1.6348,-1.637,-1.632,-1.6321,-1.6379,-1.6381,-1.6383,-1.6443,0,0,0,0,0,0,-1.6463,-1.6461,-1.6474,-1.6446,-1.6442,-1.6454,-1.6409,-1.6402,-1.6398,-1.6393,-1.6369,-1.6363,-1.6338,-1.6349,-1.6349,-1.6369,-1.6321,-1.6377,-1.638,-1.6383,-1.6439,-1.6447,-1.6454,0,0,0,0,0,-1.6464,-1.6492,-1.6475,-1.6473,-1.6456,-1.6456,-1.6453,-1.6423,-1.64,-1.6412,-1.6392,-1.6364,-1.6367,-1.635,-1.635,-1.6371,-1.6375,-1.6379,-1.6382,-1.6435,-1.6445,-1.6454,0,0,0,0,0,0,-1.6524,-1.6488,-1.6468,-1.6488,-1.6475,-1.6446,-1.646,-1.6435,-1.6428,-1.6424,-1.6387,-1.6382,-1.6398,-1.6385,-1.6367,-1.6399,-1.6367,-1.637,-1.6407,-1.6416,-1.6424,-1.6427,-1.6321,0,0,0,0,0,-1.654,-1.6542,-1.651,-1.6531,-1.6526,-1.6494,-1.6493,-1.647,-1.6456,-1.645,-1.6431,-1.6418,-1.6415,-1.6415,-1.6411,-1.6436,-1.643,-1.645,-1.6457,-1.6464,-1.6468,-1.6479,-1.6487,-1.6396,-1.6396,-1.6396,0,0,-1.6572,-1.6553,-1.6557,-1.6543,-1.653,-1.6533,-1.649,-1.6496,-1.6497,-1.6451,-1.6461,-1.6446,-1.6428,-1.6446,-1.6453,-1.6436,-1.6491,-1.6468,-1.6474,-1.6474,-1.6483,-1.6492,-1.65,-1.6399,-1.6398,-1.6398,0,0,-1.6633,-1.6619,-1.6634,-1.6622,-1.6603,-1.6581,-1.6585,-1.6558,-1.6547,-1.6555,-1.652,-1.6521,-1.6519,-1.6508,-1.6502,-1.6556,-1.653,-1.6556,-1.6596,-1.6607,-1.6614,-1.662,-1.664,-1.6647,-1.656,-1.656,-1.656,0,-1.6676,-1.6679,-1.6645,-1.6653,-1.6647,-1.6604,-1.6619,-1.6609,-1.659,-1.6587,-1.6568,-1.6563,-1.6548,-1.6562,-1.6576,-1.6572,-1.6575,-1.6559,-1.6616,-1.6622,-1.6627,-1.6645,-1.6652,-1.6563,-1.6563,-1.6562,-1.6562,0,-1.6733,-1.6736,-1.675,-1.6732,-1.6728,-1.674,-1.6707,-1.6707,-1.6684,-1.6664,-1.6673,-1.6654,-1.6645,-1.6646,-1.6625,-1.6657,-1.6647,-1.6623,-1.6589,-1.6639,-1.6656,-1.6662,-1.6568,-1.6567,-1.6566,-1.6565,0,0,-1.6833,-1.6794,-1.68,-1.6791,-1.6765,-1.6767,-1.6775,-1.6766,-1.6767,-1.6754,-1.6761,-1.6758,-1.6735,-1.6728,-1.6704,-1.6714,-1.6758,-1.6688,-1.6687,-1.6702,-1.6791,-1.6811,-1.6819,-1.6739,-1.6741,-1.6742,-1.6793,0,-1.6889,-1.6902,-1.687,-1.6891,-1.6892,-1.685,-1.6857,-1.6842,-1.6824,-1.6822,-1.6801,-1.68,-1.6769,-1.6764,-1.6772,-1.6751,-1.6775,-1.6746,-1.6745,-1.6745,-1.6752,-1.6828,-1.6848,-1.6898,-1.6799,-1.68,-1.6801,0,-1.6957,-1.6947,-1.6967,-1.6939,-1.6939,-1.6946,-1.6934,-1.6933,-1.6915,-1.69,-1.6892,-1.6864,-1.6869,-1.6837,-1.6844,-1.6825,-1.6823,-1.6812,-1.6813,-1.6812,-1.6777,-1.683,-1.6913,-1.6921,-1.681,-1.681,-1.6809,0,-1.7028,-1.7019,-1.703,-1.7023,-1.6991,-1.6997,-1.6984,-1.6964,-1.696,-1.6949,-1.6946,-1.6936,-1.6931,-1.6924,-1.6894,-1.6873,-1.6905,-1.687,-1.6893,-1.6894,-1.6903,-1.6903,-1.6988,-1.69,-1.69,-1.69,-1.69,0,-1.7094,-1.7108,-1.7061,-1.7068,-1.7082,-1.7045,-1.706,-1.7043,-1.7025,-1.7028,-1.699,-1.6993,-1.6953,-1.6951,-1.6927,-1.6937,-1.6935,-1.6923,-1.6917,-1.6927,-1.6929,-1.6926,-1.6922,-1.6902,-1.6902,-1.6901,-1.6901,0,-1.7176,-1.7146,-1.7154,-1.7122,-1.7114,-1.7126,-1.7099,-1.7103,-1.7081,-1.7085,-1.7083,-1.7049,-1.7045,-1.7013,-1.7003,-1.6987,-1.7005,-1.6992,-1.7012,-1.7007,-1.7032,-1.7031,-1.7119,-1.7128,-1.7035,-1.7036,-1.7036,0,-1.7221,-1.7231,-1.7199,-1.7198,-1.7186,-1.7185,-1.718,-1.7143,-1.7139,-1.7118,-1.7125,-1.7118,-1.711,-1.7106,-1.708,-1.7071,-1.7057,-1.7089,-1.7056,-1.7065,-1.7058,-1.7058,-1.7059,-1.7096,-1.7097,-1.7098,-1.7099,0,-1.7304,-1.7288,-1.7282,-1.7271,-1.7266,-1.7255,-1.7242,-1.7243,-1.7202,-1.72,-1.7195,-1.7189,-1.7177,-1.717,-1.7156,-1.7142,-1.7114,-1.7109,-1.7114,-1.7125,-1.7136,-1.713,-1.7031,-1.7108,-1.7107,-1.7106,-1.7106,-1.7105,-1.7369,-1.7375,-1.7354,-1.7348,-1.7334,-1.7322,-1.7325,-1.7302,-1.7297,-1.7285,-1.7263,-1.7261,-1.724,-1.7219,-1.7207,-1.7205,-1.7188,-1.7195,-1.7197,-1.72,-1.7205,-1.7136,-1.7202,-1.7202,-1.7201,-1.7201,-1.7201,0,-1.745,-1.7434,-1.7429,-1.7411,-1.7407,-1.7379,-1.7363,-1.7361,-1.7359,-1.7342,-1.7335,-1.7329,-1.7321,-1.7294,-1.7283,-1.7287,-1.7273,-1.7285,-1.7285,-1.7282,-1.722,-1.7217,-1.7296,-1.7296,-1.7296,-1.7296,-1.7296,-1.7296,-1.7492,-1.7501,-1.7482,-1.7483,-1.7466,-1.7463,-1.7456,-1.7445,-1.7431,-1.7425,-1.7419,-1.74,-1.7379,-1.7366,-1.7358,-1.735,-1.7348,-1.7365,-1.7352,-1.7296,-1.7287,-1.7278,-1.7275,-1.7364,-1.7364,-1.7414,-1.7415,-1.7415]}]]